Погода в Дживани

Пакистан     25°09′25″N   61°48′50″E
темп.,
°C
ветер,
м/с
пор.,
м/с
влажн.,
%
обл.,
%
осадки,
мм/ч
давл.,
гПа
погр.,
м
18 мая, вт
вт1823:00+32зюз47511 0.0 1003180
02:00+31зюз47520 0.0 1002102
05:00+30сз33435 0.0 100116
08:00+33з23390 0.0 1003139
11:00+39ссв23160 0.0 1003832
14:00+43ю76100 0.0 10013547
17:00+40юз89160 0.0 999516
20:00+35з611355 0.0 1001335
19 мая, ср
ср1923:00+33юз2236100 0.0 100224
02:00+34юз33267 0.0 100023
05:00+31зюз33510 0.0 100027
08:00+32ю22480 0.0 1002176
11:00+37вюв77300 0.0 1003861
14:00+40юв76210 0.0 10011130
17:00+36ю89350 0.0 999430
20:00+32зюз69561 0.0 1000286
20 мая, чт
чт2023:00+32в344619 0.0 100249
02:00+31ююв22420 0.0 100111
05:00+29юз44660 0.0 100065
08:00+31з35600 0.0 1003274
11:00+37зюз01270 0.0 1003708
14:00+42ююз33170 0.0 10011137
17:00+37ююз88340 0.0 1000392
20:00+33зюз69520 0.0 1001258
21 мая, пт
пт2123:00+33ююз33491 0.0 100245
02:00+30ю45730 0.0 100198
05:00+29ююз11810 0.0 100111
08:00+31зюз11630 0.0 1004201
11:00+40в56190 0.0 10041116
14:00+42ююв86150 0.0 10021137
17:00+37ююз78361 0.0 1000402
20:00+32юз46583 0.0 1002227
22 мая, сб
сб2223:00+31зюз11610 0.0 100433
02:00+31с11480 0.0 100311
05:00+31сз22350 0.0 100311
08:00+35св49110 0.0 1004303
11:00+42св5850 0.0 10041915
14:00+45з2650 0.0 10013290
17:00+39юз99180 0.0 1000677
20:00+34зюз611410 0.0 1001276